Details for Air France Cargo at LFPG




Go Back


Latest METAR
Local Time

LFPG 220900Z 24012KT 180V290 CAVOK 16/06 Q1023 NOSIG
22/09/2018, 11:24:07

Description
Results
Air France Cargo Logo
Number of Pilots based at LFPG
0 Pilots Based here
Number of Air France Cargo Flights Departed from LFPG
1 Flights Departed
Number of Air France Cargo Flights Arrived at LFPG
0 Flights Arrived
Number of Air France Cargo Schedules Departing from LFPG
10 Schedules
Number of Air France Cargo Schedules Arriving at LFPG
12 Schedules
Number of Air France Cargo Schedules Departing from LFPG availible today
2 Schedules Today
Number of Air France Cargo Schedules Arriving at LFPG availible today
3 Schedules Today
Average Landing Rate at LFPG
-223 fpm
Air France Cargo Average Landing Rate at LFPG
0 fpm
Total Fuel Purchased at LFPG by Air France Cargo
51,815.22 kgs / 114,231.83 lbs

Pilots Based at LFPG


Pilot ID
Pilot Name
Pilot Rank
No. of Flights
No. of Flying Hours
There are no pilots assigned to this hub!   Will you be the first?
Content